Weather in Dachny

Russia / Republic of Mordovia     54°33′19″N   42°38′03″E
temp.,
°C
wind,
m/s
gust,
m/s
humid.,
%
clouds,
%
prec.,
mm/h
press.,
hPa
HPBL,
m
3 march, wed
wed300:00−4wnw3109684 0.0 1006289
03:00−2nw499591 0.1 1007532
06:00−4nnw51190100 0.3 1008668
09:00−6nw5119296 0.4 1011569
12:00−3nw588699 0.0 1012759
15:00−3nw598099 0.1 10121047
18:00−5w389571 0.1 1011263
21:00−5wsw4109384 0.1 1011265
4 march, thu
thu400:00−2wsw61294100 0.1 1008707
03:00−2wsw61291100 0.2 1006795
06:00−2wsw61495100 0.4 1003761
09:000wsw81597100 1.5 10011111
12:00+1w71490100 0.4 10001127
15:00+1wsw61191100 0.4 1001937
18:000wnw3798100 1.6 1000490
21:00−3nw1498100 3.3 1001200
5 march, fri
fri500:00−4w0198100 0.9 100022
03:00−4n2497100 2.1 1000183
06:00−6n3696100 0.6 1002219
09:00−6n359399 0.6 1005279
12:00−3n248692 0.0 1007643
15:00−3nw238196 0.1 1009775
18:00−7w228899 0.1 101021
21:00−9sw239353 0.1 101224
6 march, sat
sat600:00−10sw239652 0.1 101273
03:00−11wsw369672 0.2 1012108
06:00−13w37960 0.0 1012140
09:00−11wnw369322 0.0 1013270
12:00−7wnw368885 0.0 1014594
15:00−6wnw468593 0.1 1014959
18:00−10nw498895 0.1 1015318
21:00−15nw249247 0.1 101775
7 march, sun
sun700:00−16w23920 0.0 101628
03:00−16sw36940 0.0 1015111
06:00−15ssw410900 0.0 1013261
09:00−9ssw7158050 0.0 1010757
12:00−6sw81679100 0.0 10051077
15:00−5sw91792100 0.9 10011281
18:00−4sw81693100 1.5 9971334
21:00−3sw91993100 3.5 9941505